Preview of NWS' New Version of Forecast
This preview is not operational and should not be used for support decisions.

Regional Weather Roundup (RWR)

Issued by National Weather Service (NWS)

                            
000
ASUS43 KDMX 181106
RWRIA 

WEATHER ROUNDUP FOR IOWA
NATIONAL WEATHER SERVICE DES MOINES IA
600 AM CDT WED SEP 18 2019

NOTE: "FAIR" INDICATES FEW OR NO CLOUDS BELOW 12,000 FEET WITH NO
SIGNIFICANT WEATHER AND/OR OBSTRUCTIONS TO VISIBILITY.

* - THESE STATIONS ARE NOT NWS STATIONS...THUS NOT UNDER NWS
QUALITY CONTROL.  THEY ALSO DO NOT REPORT WEATHER SUCH 
AS PRECIPITATION OR FOG.  

IAZ001>003-012>014-020>022-031>034-043>046-181200-
   NORTHWEST IOWA
  
CITY           SKY/WX    TMP DP  RH WIND       PRES   REMARKS
CARROLL *      CLEAR     72  66  83 S10       29.89F                  
CHEROKEE *     MOCLDY    72  69  90 S8        29.86S THUNDER          
DENISON *      PTCLDY    73  70  88 S13G20    29.89F                  
LE MARS *      CLEAR     72  70  94 S7G14     29.83R                  
SHELDON *        N/A     70  70 100 S8        29.83R                  
SIOUX CITY     MOCLDY    74  67  78 S17G28    29.83R                  
SPENCER        TSTM      72  68  87 S12G23    29.89R                  
STORM LAKE *   LGT RAIN  72  68  88 S5        29.86R                  
$$
 
IAZ055>058-069>071-079>083-090>094-181200-
   SOUTHWEST IOWA
  
CITY           SKY/WX    TMP DP  RH WIND       PRES   REMARKS
ATLANTIC *     CLEAR     72  68  88 S8        29.91S                  
AUDUBON *        N/A     72  66  83 S8        29.92F                  
CLARINDA *     CLEAR     68  68 100 S3        29.95S                  
COUNCIL BLFS * CLEAR     70  70 100 SE10      29.88F                  
CRESTON *      CLEAR     70  70 100 S9        29.96R                  
HARLAN  *      CLEAR     72  68  88 S10       29.90S                  
LAMONI         CLEAR     72  70  93 S9        29.97F                  
RED OAK *      CLEAR     72  68  88 S7        29.92S FOG              
SHENANDOAH *   CLEAR     72  68  88 S9        29.91S                  
$$
 
IAZ047>049-059>061-072>074-084-181200-
   CENTRAL IOWA
  
CITY           SKY/WX    TMP DP  RH WIND       PRES   REMARKS
AMES           CLEAR     70  69  97 SE8       29.94S                  
ANKENY *       CLEAR     72  70  94 S6        29.95S                  
BOONE *        CLEAR     72  72 100 S10       29.93S                  
CHARITON *     CLEAR     72  72 100 S10       29.96F                  
DES MOINES     PTCLDY    73  70  90 S13       29.94S                  
GRINNELL*      CLEAR     68  66  93 SE12      29.99F                  
KNOXVILLE *    CLEAR     70  70 100 SE8       29.96S                  
MARSHALLTOWN   CLEAR     68  68 100 SE9       29.96S                  
NEWTON *       CLEAR     70  68  94 SE9G16    29.96F                  
PELLA *        CLEAR     69  66  88 SE7       29.98F                  
PERRY *        FAIR      71  68  92 SE7       29.93S                  
$$
 
IAZ004>006-015-016-023>025-035-036-181200-
   NORTH CENTRAL IOWA
  
CITY           SKY/WX    TMP DP  RH WIND       PRES   REMARKS
ALGONA *       MOCLDY    72  72 100 S8        29.89R                  
CLARION *      CLEAR     72  72 100 S14G22    29.92S                  
ESTHERVILLE    TSTM      68  67  96 W14G24    29.96R VSB 3/4          
FORT DODGE *   MOCLDY    73  69  87 S14G23    29.90F                  
MASON CITY     CLEAR     68  65  90 S14       29.94F                  
FOREST CITY *  FAIR      70  70 100 S14G20    29.92R                  
IOWA FALLS *     N/A     69  64  84 SE12      29.96S                  
$$

IAZ007>011-017>019-026>030-037>042-050>054-066-181200-
   NORTHEAST IOWA
  
CITY           SKY/WX    TMP DP  RH WIND       PRES   REMARKS
CEDAR RAPIDS   FAIR      66  65  96 SE7       30.00F                  
CHARLES CITY * FAIR      68  66  94 S12G17    29.97F                  
CLINTON *      FAIR      64  62  93 SE9       30.06F                  
DECORAH *      FAIR      66  66 100 S10G16    29.99R FOG              
DUBUQUE        FAIR      63  62  97 S9        30.05F FOG              
MONTICELLO *   FAIR      64  64 100 SE6G13    30.02F FOG              
OELWEIN *      CLEAR     66  66 100 S13       30.01R                  
WATERLOO       FAIR      70  65  84 SE13      29.97R                  
$$
 
IAZ064-065-067-068-078-181200-
   EAST CENTRAL IOWA
  
CITY           SKY/WX    TMP DP  RH WIND       PRES   REMARKS
DAVENPORT      FAIR      65  61  87 SE8       30.06F                  
IOWA CITY      FAIR      67  64  90 SE7       30.03S                  
MUSCATINE *    FAIR      66  64  94 SE5       30.03F                  
QUAD CITIES    FAIR      64  61  90 E6        30.04F                  
$$
 
IAZ062-063-075>077-085>089-095>099-181200-
   SOUTHEAST IOWA
  
CITY           SKY/WX    TMP DP  RH WIND       PRES   REMARKS
BURLINGTON     CLEAR     68  64  87 SE8       30.04S                  
FAIRFIELD *    CLEAR     68  68 100 SE9       30.01S                  
FORT MADISON * CLEAR     70  66  88 S10G16    30.03F                  
KEOKUK *       CLEAR     68  66  94 SE9       30.03S                  
OSKALOOSA *    FAIR      67  65  92 SE7       29.99F                  
CENTERVILLE *  FAIR      68  68 100 SE7       30.01S                  
OTTUMWA        CLEAR     70  66  87 S12       29.99S                  
WASHINGTON *     N/A    N/A N/A N/A MISG        N/A                   
$$

ABBREVIATIONS USED IN REMARKS
   TC - TEMPERATURES IN CELSIUS
  WCI - WIND CHILL INDEX
   HX - HEAT INDEX
  VSB - VISIBILITY  
$$